DAPP despin weight

Debris
NORAD ID: 1931 Int'l Des: 1965-072 Owner: AFSSD Country: US
LEORETROGRADE

关于 DAPP despin weight

正在加载描述...

实时位置

正在加载3D地球...

即将过境

高度历史

Altitude vs Time

uPlot chart will show altitude changes over time

两行轨道根数

1 01931U 65072E 25340.01408568 .00002036 00000-0 53997-3 0 9997
2 01931 99.0277 2.9214 0236238 282.7799 74.7081 14.34729873165148
Epoch: Dec 6, 2025 • Age: 40 hours

当前状态

高度 852.8 km
速度 7.39 km/s
星下点 34.04°N, 31.82°E
类型 debris

大型星座

Loading constellations...